Location: Casilda
(33.0440°S, 61.1680°W)
Time: 04:27:18
(UTC-03:00)

ISS - Pass Details

Date: 10 August 2020
Orbit: 418 x 420 km, 51.6° (Epoch: 11 August)

Event Time Altitude Azimuth Distance (km) Brightness Sun altitude
Exits shadow 06:12:01 21° 176° (S) 1,023 -1.9 -20.3°
Maximum altitude 06:13:11 25° 144° (SE) 893 -1.8 -20.1°
Drops below altitude 10° 06:16:05 10° 85° (E) 1,511 0.3 -19.4°
Sets 06:18:24 0° 71° (ENE) 2,369 1.6 -19.0°
